Sault Ste Marie, MI

5:41 PM EDT on June 24, 2017 (GMT -0400)
Sault Ste Marie Municipal / Sanderson Field

Weather History for KANJ - August, 2013

Change the Weather History Date:

Tuesday, August 20, 2013

  Actual Average Record
Temperature  
Mean Temperature 74 °F 64 °F  
Max Temperature 83 °F 74 °F 94 °F (1976)
Min Temperature 64 °F 54 °F 34 °F (1977)
Degree Days  
Heating Degree Days 0 2  
Month to date heating degree days 65 40  
Since 1 June heating degree days 261 289  
Since 1 July heating degree days 115 109  
Cooling Degree Days 9 2  
Month to date cooling degree days 21 51  
Year to date cooling degree days 185 164  
Since 1 June cooling degree days 176 159  
Growing Degree Days 23 (Base 50)    
Moisture  
Dew Point 63 °F    
Average Humidity 72    
Maximum Humidity 93    
Minimum Humidity 51    
Precipitation  
Precipitation 0.00 in 0.10 in 1.46 in (1939)
Month to date precipitation 2.14 2.02  
Year to date precipitation 25.39 18.02  
Sea Level Pressure  
Sea Level Pressure 29.97 in    
Wind  
Wind Speed 7 mph (SW)    
Max Wind Speed 17 mph    
Max Gust Speed 25 mph    
Visibility 10 miles    
Events      
T = Trace of Precipitation, MM = Missing Value Source: NWS Daily Summary

Daily Weather History Graph

Daily Weather History Graph

Search for Another Location

Airport or City:

Trip Planner

Search our weather history database for the weather conditions in past years. The results will help you decide how hot, cold, wet, or windy it might be!

Date:

Astronomy

Aug. 20, 2013 Rise Set
Actual Time 6:42 AM EDT 8:38 PM EDT
Civil Twilight 6:10 AM EDT 9:10 PM EDT
Nautical Twilight 5:30 AM EDT 9:49 PM EDT
Astronomical Twilight 4:46 AM EDT 10:33 PM EDT
Moon 8:04 PM EDT (8/20) 6:13 AM EDT (8/20)
Length of Visible Light 15h 00m
Length of Day
13h 55m
Full, 100% of the Moon is Illuminated
Aug 20
Full
Aug 20
Full
Aug 28
Last Quarter
Sep 5
New
Sep 12
First Quarter

Hourly Weather History & Observations

Time (EDT) Temp. Heat Index Dew Point Humidity Pressure Visibility Wind Dir Wind Speed Gust Speed Precip Events Conditions
12:55 AM 66.9 °F - 60.1 °F 79% 29.94 in 10.0 mi WSW 4.6 mph - N/A   Partly Cloudy
1:55 AM 66.9 °F - 61.0 °F 81% 29.94 in 10.0 mi WSW 5.8 mph - N/A   Partly Cloudy
2:55 AM 66.0 °F - 62.1 °F 87% 29.93 in 10.0 mi WSW 6.9 mph - N/A   Partly Cloudy
3:55 AM 66.0 °F - 62.1 °F 87% 29.93 in 10.0 mi WSW 3.5 mph - N/A   Partly Cloudy
4:55 AM 66.0 °F - 62.1 °F 87% 29.93 in 10.0 mi Calm Calm - N/A   Clear
5:55 AM 64.9 °F - 62.1 °F 90% 29.94 in 8.0 mi WSW 4.6 mph - N/A   Scattered Clouds
6:55 AM 64.9 °F - 62.1 °F 90% 29.96 in 7.0 mi Calm Calm - N/A   Partly Cloudy
7:55 AM 66.9 °F - 63.0 °F 87% 29.98 in 8.0 mi Calm Calm - N/A   Clear
8:55 AM 70.0 °F - 64.0 °F 81% 29.99 in 10.0 mi Calm Calm - N/A   Clear
9:55 AM 73.9 °F - 66.0 °F 76% 29.99 in 9.0 mi Variable 3.5 mph - N/A   Clear
10:55 AM 75.9 °F - 66.0 °F 71% 29.99 in 10.0 mi Variable 4.6 mph - N/A   Clear
11:55 AM 79.0 °F - 68.0 °F 69% 29.99 in 10.0 mi South 5.8 mph - N/A   Clear
12:55 PM 82.0 °F 84.9 °F 68.0 °F 62% 29.98 in 10.0 mi SSW 11.5 mph - N/A   Scattered Clouds
1:55 PM 81.0 °F 83.3 °F 66.9 °F 62% 29.98 in 10.0 mi SSW 12.7 mph - N/A   Mostly Cloudy
2:55 PM 82.9 °F 85.4 °F 66.9 °F 58% 29.98 in 10.0 mi SW 13.8 mph 21.9 mph N/A   Mostly Cloudy
3:55 PM 82.0 °F 83.4 °F 64.0 °F 54% 29.97 in 10.0 mi SSW 12.7 mph 19.6 mph N/A   Clear
4:55 PM 81.0 °F 82.2 °F 63.0 °F 54% 29.97 in 10.0 mi SW 15.0 mph 25.3 mph N/A   Clear
5:55 PM 81.0 °F 82.2 °F 63.0 °F 54% 29.97 in 10.0 mi SW 13.8 mph 23.0 mph N/A   Clear
6:55 PM 80.1 °F 81.1 °F 61.0 °F 52% 29.97 in 10.0 mi SSW 11.5 mph - N/A   Clear
7:55 PM 77.0 °F - 61.0 °F 58% 29.96 in 10.0 mi SSW 8.1 mph - N/A   Clear
8:55 PM 73.9 °F - 62.1 °F 66% 29.97 in 10.0 mi SSW 6.9 mph - N/A   Clear
9:55 PM 71.1 °F - 62.1 °F 73% 29.97 in 10.0 mi SSW 8.1 mph - N/A   Clear
10:55 PM 71.1 °F - 63.0 °F 75% 29.97 in 9.0 mi SSW 9.2 mph - N/A   Clear
11:55 PM 69.1 °F - 63.0 °F 81% 29.99 in 8.0 mi South 3.5 mph - N/A   Clear